Zurück zum Katalog

STARLINK-5268

AktivKommunikationVLEO
NORAD 54192·PAYLOAD·🇺🇸 United States

Gestartet Oct 28, 2022 von Vandenberg Space Force Base

Loading…

Nächste Überflüge (nächste 24 Stunden)

TLE

AktuellSource: CelesTrak SupGP

Epoche: Sep 14, 2026, 22:00 UTC

1 54192C 22141AM  26257.91715278 -.00015474  00000+0 -45718-3 0  2570
2 54192  53.1598 215.5084 0001334  96.2175 352.7104 15.34399683    14

Verfolge STARLINK-5268 in Echtzeit mit AllMySat

Download on the App Store